Tracking 30743 objects as of 20-Jun-2025
HD Live streaming from Space Station
objects crossing your sky now

ST5-B

Track ST5-B now!
10-day predictions
ST5-B is classified as:


NORAD ID: 28981
Int'l Code: 2006-008B
Perigee: 217.3 km
Apogee: 513.2 km
Inclination: 105.4 °
Period: 91.7 minutes
Semi major axis: 6736 km
RCS: 0.3032 m2 (medium)
Launch date: March 22, 2006
Source: United States (US)
Launch site: Pegasus launched from Western Range Air Space (WRAS)
Your satellite tracking list
Your tracking list is empty




NASA's NSSDC Master Catalog

Two Line Element Set (TLE):
1 28981U 06008B   25171.54630511  .00565124  69533-5  10292-2 0  9993
2 28981 105.3714 222.9226 0219566  32.9196 328.5489 15.70273830837659
Source of the keplerian elements: AFSPC